GW5275 Weather Reports


Display with metric or nautical units.
time (UTC)temp
F
wind
direction
speed
MPH
gust
MPH
rain 1hr
in
rain 24hr
in
rain mn
in
humidity
%
barometer
mb
20260504081915 48 68 1.0 1.0 0.00 0.00 0.00 62 1015.3
20260504081412 48 69 0.0 2.0 0.00 0.00 0.00 60 1015.2
20260504080908 48 67 1.0 3.0 0.00 0.00 0.00 61 1015.3
20260504080405 48 67 1.0 3.0 0.00 0.00 0.00 61 1015.3
20260504070332 46 89 0.0 0.0 0.00 0.00 0.00 63 1015.5
20260504050721 42 12 0.0 1.0 0.00 0.00 0.00 70 1016.3
20260504050218 42 10 1.0 2.0 0.00 0.00 0.00 70 1016.1
20260504045715 43 6 1.0 1.0 0.00 0.00 0.00 69 1016.1
20260504045215 43 344 1.0 2.0 0.00 0.00 0.00 67 1016.1
20260504044713 46 16 3.0 4.0 0.00 0.00 0.00 65 1016.2
20260504044210 49 63 1.0 1.0 0.00 0.00 0.00 50 1016.2
20260504043707 49 61 0.0 0.0 0.00 0.00 0.00 49 1016.2
20260504043204 49 95 0.0 1.0 0.00 0.00 0.00 48 1016.1
20260504042701 50 88 1.0 2.0 0.00 0.00 0.00 48 1016.0
20260504042158 50 110 1.0 3.0 0.00 0.00 0.00 48 1016.2
20260504041654 50 123 1.0 2.0 0.00 0.00 0.00 48 1015.9
20260504041149 50 117 1.0 2.0 0.00 0.00 0.00 48 1016.0
20260504040647 49 95 1.0 2.0 0.00 0.00 0.00 49 1016.1
20260504040144 49 106 1.0 1.0 0.00 0.00 0.00 49 1016.0
20260504035640 48 76 0.0 1.0 0.00 0.00 0.00 52 1016.0
20260504035137 48 92 0.0 2.0 0.00 0.00 0.00 53 1016.1
20260504034635 47 55 1.0 2.0 0.00 0.00 0.00 54 1015.8
20260504034132 47 38 1.0 1.0 0.00 0.00 0.00 55 1015.9
20260504033630 48 34 1.0 1.0 0.00 0.00 0.00 54 1016.1
20260504033127 49 49 1.0 1.0 0.00 0.00 0.00 49 1016.0
20260504032623 49 102 0.0 1.0 0.00 0.00 0.00 48 1016.1
20260504032120 50 86 1.0 1.0 0.00 0.00 0.00 48 1015.9
20260504031618 50 69 0.0 2.0 0.00 0.00 0.00 48 1016.0
20260504031114 51 109 2.0 3.0 0.00 0.00 0.00 47 1015.8
20260504030611 50 106 0.0 2.0 0.00 0.00 0.00 48 1015.8
20260504030108 49 111 0.0 1.0 0.00 0.00 0.00 49 1015.7
20260504025604 49 61 0.0 1.0 0.00 0.00 0.00 49 1015.8
20260504025101 50 97 0.0 1.0 0.00 0.00 0.00 49 1015.8
20260504024558 50 50 1.0 2.0 0.00 0.00 0.00 47 1015.6
20260504024055 49 26 1.0 1.0 0.00 0.00 0.00 50 1015.7
20260504023551 51 23 1.0 1.0 0.00 0.00 0.00 48 1015.7
20260504023047 50 54 1.0 2.0 0.00 0.00 0.00 47 1015.5
20260504022543 51 57 0.0 1.0 0.00 0.00 0.00 46 1015.5
20260504022040 50 153 0.0 0.0 0.00 0.00 0.00 49 1015.3
20260504021538 51 228 0.0 0.0 0.00 0.00 0.00 52 1015.4
20260504021034 52 140 0.0 0.0 0.00 0.00 0.00 46 1015.5
20260504020531 52 132 0.0 0.0 0.00 0.00 0.00 45 1015.4
20260504020028 52 133 0.0 0.0 0.00 0.00 0.00 45 1015.3
20260504015524 52 120 0.0 0.0 0.00 0.00 0.00 44 1015.4
20260504015020 52 65 0.0 0.0 0.00 0.00 0.00 44 1015.4
20260504014516 52 70 0.0 0.0 0.00 0.00 0.00 43 1015.3
20260504014014 52 117 0.0 0.0 0.00 0.00 0.00 44 1015.3
20260504013512 52 130 0.0 0.0 0.00 0.00 0.00 43 1015.3
20260504013008 52 100 0.0 0.0 0.00 0.00 0.00 44 1015.2
20260504012506 52 61 0.0 1.0 0.00 0.00 0.00 43 1015.3
20260504012003 52 135 0.0 1.0 0.00 0.00 0.00 43 1015.2
20260504011459 52 106 0.0 0.0 0.00 0.00 0.00 44 1015.1
20260504010955 52 89 0.0 0.0 0.00 0.00 0.00 43 1015.0
20260504010452 52 60 0.0 0.0 0.00 0.00 0.00 43 1015.0
20260504005947 52 57 0.0 0.0 0.00 0.00 0.00 44 1015.1
20260504005445 52 68 0.0 0.0 0.00 0.00 0.00 44 1015.1
20260504004942 53 85 0.0 0.0 0.00 0.00 0.00 43 1015.2
20260504004439 53 91 0.0 0.0 0.00 0.00 0.00 42 1015.2
20260504003937 55 55 0.0 2.0 0.00 0.00 0.00 41 1015.0
20260504003433 55 104 1.0 2.0 0.00 0.00 0.00 39 1015.2
20260504002929 54 135 0.0 0.0 0.00 0.00 0.00 40 1015.1
20260504002426 55 59 0.0 0.0 0.00 0.00 0.00 40 1014.9
20260504001924 56 115 0.0 2.0 0.00 0.00 0.00 38 1015.0
20260504001421 57 136 0.0 2.0 0.00 0.00 0.00 37 1015.0
20260504000918 57 117 1.0 2.0 0.00 0.00 0.00 37 1015.1
20260504000416 57 106 1.0 2.0 0.00 0.00 0.00 37 1015.0
20260503235912 57 135 2.0 2.0 0.00 0.00 0.00 37 1014.7
20260503235410 57 133 2.0 3.0 0.00 0.00 0.00 38 1014.8
20260503234908 58 166 1.0 3.0 0.00 0.00 0.00 38 1014.8
20260503234405 58 125 2.0 2.0 0.00 0.00 0.00 37 1014.6
20260503233902 59 135 3.0 3.0 0.00 0.00 0.00 36 1014.8
20260503233359 59 145 2.0 4.0 0.00 0.00 0.00 35 1014.7
20260503232855 59 153 4.0 4.0 0.00 0.00 0.00 35 1014.8
20260503232352 60 115 4.0 7.0 0.00 0.00 0.00 34 1014.7
20260503231850 60 124 7.0 15.0 0.00 0.00 0.00 33 1014.6
20260503231347 60 104 5.0 8.0 0.00 0.00 0.00 33 1014.9
20260503230843 61 254 2.0 4.0 0.00 0.00 0.00 34 1014.7
20260503230340 61 149 2.0 6.0 0.00 0.00 0.00 34 1014.7
20260503225838 61 141 3.0 9.0 0.00 0.00 0.00 33 1014.7
20260503225333 61 145 3.0 4.0 0.00 0.00 0.00 33 1014.7
20260503224830 62 106 7.0 9.0 0.00 0.00 0.00 32 1014.6
20260503224327 62 173 4.0 4.0 0.00 0.00 0.00 33 1014.4
20260503223825 62 250 4.0 6.0 0.00 0.00 0.00 33 1014.4
20260503223323 62 137 2.0 3.0 0.00 0.00 0.00 32 1014.5
20260503222818 62 210 4.0 4.0 0.00 0.00 0.00 32 1014.4
20260503222317 62 225 3.0 8.0 0.00 0.00 0.00 34 1014.6
20260503221814 62 137 8.0 15.0 0.00 0.00 0.00 31 1014.6
20260503221313 63 120 5.0 7.0 0.00 0.00 0.00 32 1014.8
20260503220808 62 233 9.0 9.0 0.00 0.00 0.00 32 1014.7
20260503220306 62 143 6.0 11.0 0.00 0.00 0.00 31 1014.8
20260503215802 63 201 6.0 8.0 0.00 0.00 0.00 31 1014.7
20260503215259 62 158 4.0 9.0 0.00 0.00 0.00 30 1014.9
20260503214757 62 129 4.0 7.0 0.00 0.00 0.00 30 1014.8
20260503214254 62 214 8.0 13.0 0.00 0.00 0.00 33 1014.7
20260503213752 62 208 11.0 14.0 0.00 0.00 0.00 33 1014.7
20260503213249 63 198 6.0 10.0 0.00 0.00 0.00 30 1015.0
20260503212746 62 190 7.0 13.0 0.00 0.00 0.00 31 1014.7
20260503212243 63 209 5.0 7.0 0.00 0.00 0.00 31 1014.9
20260503211741 62 214 7.0 10.0 0.00 0.00 0.00 32 1014.8
20260503211237 62 195 6.0 7.0 0.00 0.00 0.00 32 1014.8
20260503210732 62 226 11.0 15.0 0.00 0.00 0.00 31 1014.9
20260503210230 62 232 6.0 9.0 0.00 0.00 0.00 32 1014.8
20260503205725 63 202 6.0 11.0 0.00 0.00 0.00 31 1014.7
20260503205221 62 166 6.0 16.0 0.00 0.00 0.00 31 1014.9
20260503204718 63 161 3.0 7.0 0.00 0.00 0.00 33 1014.7
20260503204216 62 145 5.0 10.0 0.00 0.00 0.00 31 1014.7
20260503203713 62 181 4.0 11.0 0.00 0.00 0.00 31 1014.8
20260503203210 62 208 8.0 17.0 0.00 0.00 0.00 33 1014.8
20260503202708 62 134 3.0 6.0 0.00 0.00 0.00 31 1015.0
20260503202205 62 189 4.0 6.0 0.00 0.00 0.00 32 1015.0
20260503201703 62 125 7.0 13.0 0.00 0.00 0.00 31 1015.1
20260503201200 62 270 6.0 11.0 0.00 0.00 0.00 31 1015.0
20260503200656 61 106 5.0 10.0 0.00 0.00 0.00 32 1015.0
20260503200153 62 112 4.0 11.0 0.00 0.00 0.00 31 1015.0
20260503195650 60 201 6.0 9.0 0.00 0.00 0.00 31 1015.5
20260503195147 60 220 11.0 14.0 0.00 0.00 0.00 32 1015.3
20260503194644 60 203 9.0 13.0 0.00 0.00 0.00 32 1015.6
20260503194139 62 256 4.0 14.0 0.00 0.00 0.00 32 1015.5
20260503193636 61 195 7.0 15.0 0.00 0.00 0.00 34 1015.5
20260503193132 61 182 9.0 13.0 0.00 0.00 0.00 33 1015.5
20260503192627 61 116 7.0 11.0 0.00 0.00 0.00 31 1015.7
20260503192123 60 231 5.0 7.0 0.00 0.00 0.00 33 1015.7
20260503191621 60 150 10.0 14.0 0.00 0.00 0.00 32 1015.8
20260503191118 61 224 3.0 6.0 0.00 0.00 0.00 36 1016.0
20260503190615 61 176 3.0 7.0 0.00 0.00 0.00 32 1015.9
20260503190111 60 92 4.0 6.0 0.00 0.00 0.00 31 1016.1
20260503185608 60 200 8.0 13.0 0.00 0.00 0.00 33 1016.1
20260503185108 61 205 9.0 10.0 0.00 0.00 0.00 31 1016.1
20260503184603 59 157 7.0 11.0 0.00 0.00 0.00 32 1016.1
20260503184100 59 245 7.0 11.0 0.00 0.00 0.00 32 1016.2
20260503183557 60 184 10.0 11.0 0.00 0.00 0.00 32 1016.3
20260503183054 58 221 6.0 14.0 0.00 0.00 0.00 33 1016.3
20260503182552 59 169 4.0 10.0 0.00 0.00 0.00 34 1016.3
20260503182050 58 175 6.0 8.0 0.00 0.00 0.00 35 1016.3
20260503181547 57 237 6.0 10.0 0.00 0.00 0.00 37 1016.5
20260503181043 58 219 5.0 13.0 0.00 0.00 0.00 33 1016.6
20260503180540 58 159 9.0 15.0 0.00 0.00 0.00 35 1016.8
20260503180038 58 132 6.0 15.0 0.00 0.00 0.00 34 1016.8
20260503175535 58 200 5.0 10.0 0.00 0.00 0.00 34 1016.7
20260503175032 57 182 11.0 16.0 0.00 0.00 0.00 38 1016.8
20260503174530 57 187 3.0 7.0 0.00 0.00 0.00 35 1016.9
20260503174026 57 193 7.0 9.0 0.00 0.00 0.00 36 1016.8
20260503173520 57 107 4.0 14.0 0.00 0.00 0.00 38 1017.1
20260503173017 55 127 6.0 15.0 0.00 0.00 0.00 38 1017.0
20260503172515 56 98 7.0 13.0 0.00 0.00 0.00 37 1016.9
20260503172012 56 135 6.0 10.0 0.00 0.00 0.00 38 1017.2
20260503171508 57 145 4.0 7.0 0.00 0.00 0.00 36 1017.1
20260503171006 56 210 8.0 13.0 0.00 0.00 0.00 39 1017.2
20260503170502 56 212 12.0 22.0 0.00 0.00 0.00 39 1017.2
20260503150854 51 165 5.0 13.0 0.00 0.00 0.00 48 1018.3
20260503150350 52 222 4.0 11.0 0.00 0.00 0.00 47 1018.2
20260503140315 49 153 4.0 10.0 0.00 0.00 0.00 52 1018.3
20260503131244 47 190 8.0 11.0 0.00 0.00 0.00 55 1018.7
20260503130742 46 240 6.0 10.0 0.00 0.00 0.00 56 1018.8
20260503130239 46 240 11.0 14.0 0.00 0.00 0.00 57 1018.6
20260503120205 44 196 8.0 11.0 0.00 0.00 0.00 61 1018.1
20260503110632 40 230 2.0 6.0 0.00 0.00 0.00 67 1017.3
20260503110130 40 199 2.0 4.0 0.00 0.00 0.00 68 1017.3